sat.trackr.live / text

‹ back to catalog

STARLINK-3172

NORAD 51139 · 2022-005AM

PAYLOAD ACTIVE UNKNOWN

§ Identity

Operator
Country
US
Launch date
2022-01-19
Launch site
AFETR
Launch vehicle
Mass (kg)
RCS (m²)

Purposes: comms

External: N2YO · Heavens-Above · Gunter

§ Orbital elements

Epoch: 2026-09-20T03:13:51.657888Z

Period
93.90 min
Inclination
53.1588°
Eccentricity
0.0001316
Mean motion
15.33550459 rev/d
Perigee alt
464.3 km
Apogee alt
466.1 km
Semi-major
6,843.4 km
B*
5.2642e-5
RAAN
131.6539°
Arg perigee
87.2486°
Mean anomaly
272.8666°
Rev number
25,829

§ Raw data

STARLINK-31721 51139U 22005AM  26263.13462567  .00001359  00000+0  52642-4 0  99912 51139  53.1588 131.6539 0001316  87.2486 272.8666 15.33550459258298

JSON: /api/v1/satellites/51139 · /tle

For live sub-satellite position, see the globe view (requires WebGL).

§ Visibility from observer

Set your observer location to see the next 7 days of passes ≥ 10°. The values pass through the URL so the page stays shareable.

No JS? Fill the form by hand. The geolocation button needs JavaScript.